Location: Nag� el Ma?a??a
(24.0667°N, 32.8833°E)
Time: 17:05:12
(UTC+00:00)

NOSS 3-4 (A) - Pass Details

Date: 25 September 2021
Orbit: 869 x 1343 km, 63.4° (Epoch: 05 October)

Event Time Altitude Azimuth Distance (km) Brightness Sun altitude
Exits shadow 03:00:27 - 227° (SW) 3,128 5.7 -9.4°
Reaches altitude 10° 03:02:12 10° 233° (SW) 2,508 5.2 -9.0°
Maximum altitude 03:07:30 38° 301° (WNW) 1,299 3.8 -7.8°
Drops below altitude 10° 03:12:58 10° 9° (N) 2,577 5.9 -6.6°
Sets 03:15:44 0° 17° (NNE) 3,566 6.7 -6.0°
